{"data":{"norad_id":38070,"epoch":"2026-05-25T02:26:52.768032Z","epoch_age_seconds":66544,"freshness":"FRESH","line1":"1 38070U 12003A   26145.10199963  .00000000  00000+0  00000+0 0  9998","line2":"2 38070   0.0150 308.0334 0000984 342.4987  77.3038  1.00268422 43915","mean_motion":1.00268422,"eccentricity":9.84e-5,"inclination_deg":0.015,"raan_deg":308.0334,"arg_perigee_deg":342.4987,"mean_anomaly_deg":77.3038,"bstar":0,"rev_number":4391,"period_min":1436.1450706784,"perigee_km":35783.388656125,"apogee_km":35791.686860918,"semimajor_km":42165.674758521,"source":"CELESTRAK","updated_at":"2026-05-25T13:38:13.907703Z"}}